DELTA 1 R/B(1)

基本信息
目录编号:
14051
目录名称:
DELTA 1 R/B(1)
国际标识:
1983-041B
轨道中心:
EARTH
物体状态:
在轨
发射日期:
1983-04-28 UTC
国别:
美国 (US)
轨道信息
数据来源: 国际轨道数据
星历时间: 2026-09-03T16:40:01+0800
半长轴: 7501.921km
偏心率: 0.0977319
轨道倾角: 25.332°
近地点辐角: 316.632°
升交点赤经: 247.203°
平近点角: 36.118°
近地点: 390.607km
远地点: 1856.961km
周期: 107.775分钟
每日圈数: 13.361158
详细信息
发射场:
AFETR
轨道高度:
LEO
数据来源:
AOE Integration Group
参考系:
TEME
时间系统:
UTC
历元类型:
SGP4
2D轨道图
3D轨道图
轨道高度分析图
轨道倾角分析图
轨道综合分析图
查看轨道综合分析图